SCP
0 0 0 0 0 0 0 0 0 0 0 0 0 0 0 0 0 0 0 0 0 0 0 0 0 0 0 0 0 0 0 0 0 0 0 0 0 0 0 0 0 0 0
0 0 0 0 0 0 0 0 0 0 0 0 0 0 0 0 0 0 0 0 0 0 0 0 0 0 0 0 0 0 0 0 0 0 0 0 0 0 0 0 0 0 0
0 0 0 0 0 0 0 0 0 0 0 0 0 0 0 0 0 0 0 0 0 0 0 0 0 0 0 0 0 0 0 0 0 0 0 0 0 0 0 0 0 0 0
0 0 0 0 0 0 0 0 0 0 0 0 0 0 0 0 0 0 0 0 0 0 0 0 0 0 0 0 0 0 0 0 0 0 0 0 0 0 0 0 0 0 0
0 0 0 0 0 0 0 0 0 0 0 0 0 0 0 0 0 0 0 0 0 0 0 0 0 0 0 0 0 0 0 0 0 0 0 0 0 0 0 0 0 0 0
0 0 0 0 0 0 0 0 0 0 0 0 0 0 0 0 0 0 0 0 0 0 0 0 0 0 0 0 0 0 0 0 0 0 0 0 0 0 0 0 0 0 0
0 0 0 0 0 0 0 0 0 0 0 0 0 0 0 0 0 0 0 0 0 0 0 0 0 0 0 0 0 0 0 0 0 0 0 0 0 0 0 0 0 0 0
0 0 1 1 0 0 0 0 0 0 0 0 0 0 0 0 0 0 0 0 0 0 0 0 0 0 0 0 0 0 0 0 0 0 0 0 0 0 0 0 0 0 0
0 0 1 1 1 1 0 1 1 1 0 0 0 0 0 0 0 0 0 0 1 0 0 0 0 0 0 0 0 0 0 0 0 0 0 0 0 0 0 0 0 0 0
0 1 1 1 1 1 1 1 1 1 1 0 0 0 0 0 0 0 0 0 1 0 0 0 0 0 1 1 1 0 0 0 0 0 0 0 0 0 0 0 0 0 0
1 1 1 1 1 1 1 1 1 1 1 1 1 1 1 1 1 0 0 0 0 0 0 0 0 0 1 1 1 0 0 0 0 0 0 0 0 0 0 0 0 0 0
1 1 1 1 1 1 1 1 1 1 1 1 1 1 1 1 1 1 1 0 0 0 0 0 0 1 1 0 0 0 0 0 0 0 0 0 0 0 0 0 0 0 0
1 1 1 1 1 1 1 1 1 1 1 1 1 1 1 1 1 1 1 1 1 0 0 0 1 1 1 1 0 0 0 0 0 0 0 0 0 0 0 0 0 0 0
1 1 1 1 1 1 1 1 1 1 1 1 1 1 1 1 1 1 1 1 1 0 0 0 0 1 1 1 0 0 0 0 0 0 0 0 0 0 0 0 0 0 0
1 1 1 1 1 1 1 1 1 1 1 1 1 1 1 1 1 1 1 1 1 1 0 0 0 0 1 1 0 0 0 0 0 0 0 0 0 0 0 0 0 0 0
1 1 1 1 1 1 1 1 1 1 1 1 1 1 1 1 1 1 1 1 1 1 0 0 0 0 1 1 0 0 0 0 0 0 0 0 0 0 0 0 0 0 0
1 1 1 1 1 1 1 1 1 1 1 1 1 1 1 1 1 1 1 1 1 0 0 0 0 0 1 0 0 0 0 0 0 0 0 0 0 0 0 0 0 0 0
1 1 1 1 1 1 1 1 1 1 1 1 1 1 1 1 1 1 1 0 0 0 0 0 0 0 1 0 0 0 0 0 0 0 0 0 0 0 0 0 0 0 0
1 1 1 1 1 1 1 1 1 1 1 1 1 1 1 1 1 1 0 0 0 0 0 0 0 0 0 0 0 0 1 1 0 0 0 0 0 0 0 0 0 0 0
1 1 1 1 1 1 1 1 1 1 1 1 1 0 0 0 0 0 0 0 0 0 0 0 0 0 0 0 1 1 1 0 0 0 0 0 0 0 0 0 0 0 0
1 1 1 1 1 0 0 0 0 0 0 0 0 0 0 0 0 0 0 0 0 0 0 0 0 0 0 1 0 0 0 0 0 0 0 0 0 0 0 0 0 0 0
1 1 1 1 1 0 0 0 0 0 0 0 0 0 0 0 0 0 0 0 0 0 0 0 0 0 0 0 0 0 0 0 0 0 0 0 0 0 0 0 0 0 0
1 1 1 1 0 0 0 0 0 0 0 0 0 0 0 0 0 0 0 0 0 0 0 0 0 0 0 0 0 0 0 0 0 0 0 0 0 0 0 0 0 0 0
1 1 1 1 1 0 0 0 0 0 0 0 0 0 0 0 0 0 0 0 0 0 0 0 0 0 0 0 0 0 0 0 0 0 0 0 0 0 0 0 0 0 0
1 1 1 1 1 0 0 0 0 0 0 0 0 0 0 0 0 0 0 0 0 0 0 0 0 0 0 0 0 0 0 0 0 0 0 0 0 0 0 0 0 0 0
1 1 1 1 1 0 0 0 0 0 0 0 0 0 0 0 0 0 0 0 0 0 0 0 0 0 0 0 0 0 0 0 0 0 0 0 0 0 0 0 0 0 0
Wind_Speed
2 2 1 1 1 1 2 1 1 1 1 1 1 1 1 1 1 3 4 10 10 9 9 9 8 7 8 8 8 8 8 7 6 6 6 6 7 7 7 7 8 9 9
2 2 1 0 1 1 1 1 1 1 1 1 2 2 2 2 2 3 4 7 11 10 10 9 9 8 8 8 8 8 8 8 7 7 7 7 7 7 7 7 7 8 9
2 2 1 1 1 0 0 1 1 1 2 2 2 2 2 3 3 3 4 4 6 9 10 10 10 9 9 9 8 8 7 8 8 8 8 8 8 8 8 8 8 8 8
2 2 1 1 1 1 1 1 1 1 1 1 1 2 2 2 4 4 4 4 5 5 8 10 10 9 10 10 9 8 8 7 7 7 7 7 8 8 8 8 8 8 9
1 1 1 1 1 1 0 0 1 0 1 1 2 2 1 2 3 4 4 4 4 5 5 8 10 9 9 10 9 9 8 8 7 7 8 8 8 8 8 8 8 8 9
2 1 1 1 0 1 1 0 0 1 1 1 2 1 1 2 3 2 3 3 3 5 5 6 6 6 8 8 9 9 9 8 8 8 8 8 8 8 8 9 9 9 9
1 1 1 1 1 1 1 0 1 1 1 1 1 1 1 2 2 2 2 2 2 3 4 5 5 4 4 8 8 9 9 9 8 8 8 8 8 8 8 9 10 10 10
1 2 2 1 1 1 1 1 0 1 2 1 0 1 1 1 1 2 2 2 3 2 2 4 4 4 3 3 5 9 9 9 8 9 8 7 7 8 8 9 9 10 10
1 1 1 0 0 1 1 1 0 1 1 1 0 0 1 1 1 1 1 1 1 2 2 3 4 4 4 3 3 5 7 7 8 8 7 6 7 7 8 9 9 9 10
1 1 1 0 1 1 1 1 1 1 1 2 1 1 1 0 1 1 1 0 1 1 2 2 2 3 4 3 4 5 6 6 6 6 7 6 6 6 7 8 8 10 10
1 1 1 1 0 0 1 1 1 1 1 2 2 2 1 1 2 1 1 1 1 0 1 1 1 1 2 3 3 5 7 6 5 4 4 5 5 5 6 7 8 9 10
1 1 2 1 1 1 1 1 1 1 1 2 2 2 1 1 1 1 2 1 1 1 1 1 1 2 2 2 3 6 7 6 5 4 4 4 4 4 4 5 6 7 8
1 1 2 1 0 0 0 1 0 1 1 2 2 2 2 2 1 1 1 2 2 1 1 2 1 1 2 2 3 6 6 6 6 5 4 4 4 3 4 4 5 5 6
1 2 2 1 0 1 1 1 1 1 1 2 2 2 2 2 2 1 1 2 2 1 1 2 1 1 1 2 4 6 5 6 5 5 5 4 4 4 4 4 4 5 5
1 2 1 1 0 0 1 0 0 1 1 2 2 2 2 2 2 2 2 1 1 2 2 2 1 1 1 1 3 3 4 5 5 5 5 5 5 4 4 4 4 5 5
2 1 0 1 0 0 1 0 1 1 1 1 1 2 2 2 3 2 2 2 1 2 3 2 1 1 1 0 2 2 3 5 6 6 6 5 5 5 4 4 4 5 5
1 1 1 0 0 1 0 0 1 1 1 2 2 2 2 3 3 3 2 2 2 1 2 2 2 1 0 0 1 2 3 3 3 6 6 5 5 4 3 3 3 3 4
1 1 0 0 1 0 1 1 1 1 1 2 2 2 3 2 3 3 3 3 2 2 2 3 3 2 1 1 2 2 2 2 3 5 5 5 5 4 3 3 3 3 3
1 1 0 0 1 0 0 1 1 1 1 1 2 2 2 2 3 2 3 3 2 2 2 2 3 2 1 1 2 2 1 1 2 4 5 5 5 5 4 3 3 3 3
1 1 1 1 1 1 0 1 1 1 1 2 1 2 2 2 3 3 3 3 3 3 3 2 3 2 1 1 1 2 1 1 2 1 2 3 5 5 4 3 3 2 2
2 2 2 2 2 2 1 1 1 1 1 2 2 2 1 2 2 2 3 3 3 2 2 2 2 2 1 1 1 2 2 2 2 1 1 1 2 2 3 3 3 2 2
2 2 2 2 2 1 2 2 1 1 1 2 2 2 2 1 1 1 3 4 3 3 3 2 2 2 2 2 2 2 1 1 1 0 0 1 1 1 2 2 3 4 4
2 2 2 2 1 0 1 1 1 1 2 2 3 3 3 3 2 2 3 3 4 4 3 3 2 2 2 2 2 3 2 2 2 1 1 2 1 1 1 2 6 6 5
2 2 2 2 2 1 1 1 1 2 2 2 2 2 2 2 3 3 3 2 2 2 3 2 2 3 2 2 2 3 3 2 1 1 1 1 0 1 0 1 5 6 5
3 3 2 2 2 2 2 2 2 2 2 3 2 2 1 1 2 3 2 2 3 2 2 2 2 2 3 3 3 2 2 1 1 1 0 0 1 1 1 1 3 5 6
3 3 3 2 2 2 2 3 3 3 3 2 2 1 0 2 2 2 2 2 3 3 3 3 2 3 3 3 3 2 2 2 1 1 0 0 1 0 1 1 1 3 3
Wind_Direction
109 99 82 75 133 128 140 142 177 188 175 229 237 209 188 190 141 138 153 174 177 181 185 188 193 200 200 202 205 211 213 211 212 212 215 218 215 208 205 202 201 203 204
106 109 123 131 39 33 89 146 191 181 206 226 238 222 208 196 173 163 162 177 184 186 190 193 195 197 198 200 206 212 214 213 213 214 214 217 219 214 209 207 206 207 207
123 127 137 128 116 197 139 165 233 206 210 222 232 227 214 195 183 181 184 175 180 191 195 198 198 197 200 205 207 209 214 216 215 216 217 220 220 217 214 212 212 211 210
129 140 142 142 175 184 177 183 213 254 249 248 256 247 213 193 182 191 194 183 173 182 192 196 193 200 206 208 208 210 212 215 217 218 218 222 221 219 216 215 217 216 215
127 144 126 138 180 161 167 252 57 323 288 289 266 231 220 196 192 195 190 187 175 170 170 183 192 202 206 206 207 211 213 215 218 223 224 223 223 221 218 217 218 217 217
137 125 138 168 150 91 62 51 341 298 277 267 274 268 235 213 206 181 194 177 163 169 170 172 186 200 204 204 208 213 214 216 220 225 229 228 227 225 224 222 221 219 217
136 137 115 157 144 129 146 302 308 293 270 259 293 312 268 219 174 155 184 175 169 179 169 168 180 184 195 204 209 211 214 217 221 224 227 229 228 227 226 225 224 223 220
176 170 158 200 162 147 169 227 321 301 303 310 319 326 320 331 336 187 184 193 180 173 170 181 178 173 185 184 198 208 217 221 227 229 226 229 234 234 233 229 227 225 220
155 109 133 271 277 180 168 212 213 247 298 313 353 180 269 267 301 284 208 182 161 156 183 195 185 175 190 182 178 196 211 216 225 229 222 226 235 238 239 236 231 224 220
152 152 144 103 348 13 31 298 81 306 295 299 296 249 245 236 233 298 293 237 185 182 199 204 193 180 186 172 145 155 191 202 213 224 223 229 237 238 243 243 237 228 221
158 173 125 125 105 38 355 4 11 337 331 310 310 303 300 276 226 224 266 294 327 264 205 227 206 182 180 159 157 162 174 182 193 203 218 232 240 244 249 245 242 232 221
163 142 123 104 89 48 2 351 318 307 307 318 312 306 304 291 290 259 251 260 245 255 226 224 212 181 171 153 168 159 162 171 182 191 202 212 225 240 243 244 239 230 223
118 88 99 101 85 83 278 296 354 321 305 300 297 297 299 293 283 269 266 271 262 254 249 229 208 185 178 155 150 154 166 173 184 192 201 205 211 227 239 244 236 229 225
102 104 100 110 185 263 290 23 343 281 298 301 300 306 300 297 296 287 270 285 298 296 281 265 227 191 176 154 155 164 164 171 181 189 197 200 202 211 227 234 231 225 223
123 109 128 147 187 330 341 9 303 303 317 322 315 314 307 303 299 288 288 270 268 292 292 275 279 257 192 149 166 164 160 174 182 192 197 200 200 205 216 226 227 218 215
48 64 143 136 120 284 297 308 278 292 310 297 288 318 318 318 317 307 293 287 271 257 270 280 290 272 244 219 162 165 172 178 193 198 201 204 205 206 212 221 227 219 214
112 93 42 39 264 267 273 335 295 307 310 314 313 324 320 317 315 314 317 308 293 289 279 285 280 283 272 285 215 210 186 188 188 193 196 200 200 196 197 206 214 215 213
153 131 152 285 272 360 358 320 314 340 341 329 325 326 318 319 325 319 319 311 305 300 281 282 280 287 261 218 222 225 211 203 189 190 189 187 187 188 188 196 203 212 214
164 117 104 312 323 14 8 328 334 330 319 314 321 317 317 328 317 317 305 303 299 299 289 278 283 284 289 273 262 258 225 222 216 179 188 190 191 192 195 200 207 212 211
190 191 220 243 257 286 302 295 314 313 311 330 335 328 322 316 317 314 309 314 312 309 292 286 279 275 280 273 265 274 267 248 252 206 204 185 190 195 196 192 202 207 202
210 201 220 234 242 250 284 8 294 289 315 316 317 319 317 331 339 325 328 325 320 317 313 304 293 298 307 298 288 286 283 278 266 216 186 201 179 192 195 197 190 179 175
223 213 221 239 250 277 36 37 7 341 336 316 309 305 283 291 320 334 330 321 311 297 302 300 299 308 316 315 300 291 284 275 277 288 232 256 190 183 169 170 178 171 174
227 220 228 227 189 303 38 61 3 314 309 305 301 305 305 312 354 346 316 298 306 301 271 268 291 299 296 296 292 285 282 259 261 256 246 256 197 190 189 176 173 173 176
224 226 229 229 199 233 224 186 280 261 272 282 294 298 302 338 342 341 317 317 307 307 278 259 259 276 292 292 279 268 266 270 262 252 179 241 272 275 225 164 177 177 186
226 229 225 227 210 224 219 213 231 258 261 264 264 280 298 2 356 1 336 317 309 304 324 326 298 284 283 280 281 291 288 264 266 268 15 222 254 292 234 186 181 186 193
230 234 231 229 220 215 206 209 223 250 262 263 258 262 321 28 23 1 321 305 305 312 319 308 297 274 256 253 249 235 245 257 261 259 327 350 250 256 278 230 175 191 207